When you browse on this site, cookies collect data to enhance your experience and personalize the content and advertising you see.
Visit our Privacy Policy to learn more. By continuing to use the site, you agree to this use of cookies and data.
  • In Portugal
  • List of Countries
  • For 7 days
  • Water Temperature
  • Weather Map
  • Weather Widgets
  • user-avatar
    Login

    Hourly Weather Evora

    Today, 17 February, Monday

    Time Temperature Precipitation Wind Pressure Humidity
    00:00 +10°C° 0 mm 1 mps 746 mmHg 96%
    01:00 +10°C° 0 mm 1 mps 746 mmHg 97%
    02:00 +10°C° 0 mm 1 mps 746 mmHg 97%
    03:00 +10°C° 0 mm 1 mps 746 mmHg 98%
    04:00 +11°C° 0 mm 1 mps 746 mmHg 98%
    05:00 +10°C° 0 mm 0 mps 746 mmHg 98%
    06:00 +12°C° 0 mm 1 mps 746 mmHg 97%
    07:00 +13°C° 0 mm 1 mps 747 mmHg 96%
    08:00 +13°C° 0 mm 1 mps 747 mmHg 95%
    09:00 +14°C° 0 mm 1 mps 747 mmHg 92%
    10:00 +15°C° 0 mm 1 mps 747 mmHg 89%
    11:00 +16°C° 0 mm 2 mps 748 mmHg 86%
    12:00 +16°C° 0.2 mm 2 mps 747 mmHg 84%
    13:00 +17°C° 0.2 mm 3 mps 747 mmHg 83%
    14:00 +17°C° 0.2 mm 4 mps 747 mmHg 81%
    15:00 +14°C° 0 mm 4 mps 747 mmHg 80%
    16:00 +13°C° 0 mm 4 mps 747 mmHg 80%
    17:00 +12°C° 0 mm 3 mps 747 mmHg 79%
    18:00 +11°C° 0 mm 4 mps 747 mmHg 79%
    19:00 +8°C° 0 mm 4 mps 747 mmHg 78%
    20:00 +7°C° 0 mm 4 mps 748 mmHg 77%
    21:00 +6°C° 0 mm 4 mps 748 mmHg 79%
    22:00 +6°C° 0 mm 4 mps 748 mmHg 81%
    23:00 +5°C° 0 mm 3 mps 748 mmHg 83%

    Tomorrow, 18 February, Tuesday

    Time Temperature Precipitation Wind Pressure Humidity
    00:00 +5°C° 0 mm 3 mps 748 mmHg 84%
    01:00 +5°C° 0 mm 3 mps 747 mmHg 85%
    02:00 +4°C° 0 mm 3 mps 747 mmHg 86%
    03:00 +4°C° 0 mm 3 mps 747 mmHg 88%
    04:00 +4°C° 0 mm 3 mps 747 mmHg 89%
    05:00 +3°C° 0 mm 3 mps 746 mmHg 91%
    06:00 +4°C° 0 mm 3 mps 747 mmHg 87%
    07:00 +5°C° 0 mm 3 mps 747 mmHg 83%
    08:00 +7°C° 0 mm 3 mps 748 mmHg 79%
    09:00 +9°C° 0 mm 3 mps 748 mmHg 73%
    10:00 +11°C° 0 mm 3 mps 748 mmHg 67%
    11:00 +13°C° 0 mm 4 mps 748 mmHg 61%
    12:00 +14°C° 0 mm 4 mps 747 mmHg 61%
    13:00 +14°C° 0 mm 4 mps 747 mmHg 61%
    14:00 +15°C° 0 mm 4 mps 746 mmHg 61%
    15:00 +14°C° 0 mm 4 mps 746 mmHg 67%
    16:00 +12°C° 0 mm 4 mps 746 mmHg 72%
    17:00 +11°C° 0 mm 3 mps 746 mmHg 78%
    18:00 +10°C° 0 mm 3 mps 747 mmHg 79%
    19:00 +9°C° 0 mm 3 mps 747 mmHg 80%
    20:00 +7°C° 0 mm 4 mps 747 mmHg 81%
    21:00 +7°C° 0 mm 3 mps 747 mmHg 81%
    22:00 +7°C° 0 mm 3 mps 747 mmHg 80%
    23:00 +7°C° 0 mm 3 mps 747 mmHg 79%

    Day after tomorrow, 19 February, Wednesday

    Time Temperature Precipitation Wind Pressure Humidity
    00:00 +5°C° 0 mm 3 mps 747 mmHg 79%
    01:00 +5°C° 0 mm 3 mps 747 mmHg 78%
    02:00 +4°C° 0 mm 3 mps 747 mmHg 78%
    03:00 +4°C° 0 mm 3 mps 746 mmHg 78%
    04:00 +5°C° 0 mm 2 mps 746 mmHg 79%
    05:00 +5°C° 0 mm 2 mps 746 mmHg 80%
    06:00 +6°C° 0 mm 2 mps 747 mmHg 79%
    07:00 +7°C° 0 mm 2 mps 747 mmHg 78%
    08:00 +8°C° 0 mm 2 mps 747 mmHg 77%
    09:00 +11°C° 0 mm 3 mps 747 mmHg 73%
    10:00 +13°C° 0 mm 3 mps 747 mmHg 69%
    11:00 +15°C° 0 mm 4 mps 747 mmHg 65%
    12:00 +17°C° 0 mm 4 mps 747 mmHg 63%
    13:00 +18°C° 0 mm 3 mps 746 mmHg 60%
    14:00 +19°C° 0 mm 3 mps 746 mmHg 58%
    15:00 +17°C° 0 mm 3 mps 745 mmHg 64%
    16:00 +16°C° 0 mm 3 mps 745 mmHg 70%
    17:00 +15°C° 0 mm 2 mps 745 mmHg 76%
    18:00 +13°C° 0 mm 2 mps 745 mmHg 78%
    19:00 +12°C° 0 mm 2 mps 745 mmHg 79%
    20:00 +10°C° 0 mm 2 mps 745 mmHg 80%
    21:00 +10°C° 0 mm 2 mps 745 mmHg 82%
    22:00 +9°C° 0 mm 2 mps 744 mmHg 84%
    23:00 +9°C° 0 mm 2 mps 744 mmHg 85%

    20 February, Thursday

    Time Temperature Precipitation Wind Pressure Humidity
    00:00 +9°C° 0 mm 2 mps 744 mmHg 87%
    01:00 +9°C° 0 mm 1 mps 743 mmHg 88%
    02:00 +9°C° 0 mm 1 mps 743 mmHg 90%
    03:00 +9°C° 0 mm 1 mps 743 mmHg 90%
    04:00 +9°C° 0 mm 1 mps 743 mmHg 91%
    05:00 +9°C° 0 mm 1 mps 742 mmHg 92%
    06:00 +10°C° 0 mm 1 mps 743 mmHg 89%
    07:00 +11°C° 0 mm 1 mps 743 mmHg 86%
    08:00 +11°C° 0 mm 0 mps 743 mmHg 84%
    09:00 +13°C° 0 mm 1 mps 743 mmHg 79%
    10:00 +15°C° 0 mm 2 mps 744 mmHg 74%
    11:00 +17°C° 0 mm 3 mps 744 mmHg 68%
    12:00 +17°C° 0 mm 3 mps 743 mmHg 66%
    13:00 +17°C° 0 mm 4 mps 743 mmHg 65%
    14:00 +17°C° 0 mm 4 mps 742 mmHg 63%
    15:00 +15°C° 0 mm 4 mps 742 mmHg 67%
    16:00 +13°C° 0 mm 4 mps 742 mmHg 72%
    17:00 +12°C° 0 mm 4 mps 742 mmHg 77%
    18:00 +11°C° 0 mm 4 mps 742 mmHg 81%
    19:00 +8°C° 0 mm 4 mps 742 mmHg 86%
    20:00 +7°C° 0 mm 4 mps 743 mmHg 91%
    21:00 +7°C° 0 mm 4 mps 743 mmHg 92%
    22:00 +6°C° 0 mm 4 mps 743 mmHg 92%
    23:00 +7°C° 0 mm 3 mps 743 mmHg 93%

    21 February, Friday

    Time Temperature Precipitation Wind Pressure Humidity
    00:00 +7°C° 0 mm 3 mps 743 mmHg 92%
    01:00 +7°C° 0 mm 3 mps 743 mmHg 91%
    02:00 +5°C° 0 mm 3 mps 743 mmHg 89%
    03:00 +5°C° 0 mm 3 mps 743 mmHg 89%
    04:00 +5°C° 0 mm 3 mps 743 mmHg 89%
    05:00 +5°C° 0 mm 3 mps 743 mmHg 88%
    12:00 +16°C° 0 mm 5 mps 746 mmHg 59%
    13:00 +17°C° 0 mm 5 mps 745 mmHg 58%
    14:00 +18°C° 0 mm 4 mps 745 mmHg 57%
    15:00 +17°C° 0 mm 4 mps 745 mmHg 61%
    16:00 +15°C° 0 mm 4 mps 745 mmHg 66%
    17:00 +13°C° 0 mm 4 mps 746 mmHg 71%
    18:00 +13°C° 0 mm 4 mps 746 mmHg 69%
    19:00 +12°C° 0 mm 4 mps 747 mmHg 68%
    20:00 +11°C° 0 mm 4 mps 747 mmHg 67%
    21:00 +10°C° 0 mm 4 mps 748 mmHg 67%
    22:00 +10°C° 0 mm 4 mps 748 mmHg 68%
    23:00 +9°C° 0 mm 3 mps 748 mmHg 68%

    22 February, Saturday

    Time Temperature Precipitation Wind Pressure Humidity
    00:00 +9°C° 0 mm 3 mps 748 mmHg 70%
    01:00 +8°C° 0 mm 3 mps 748 mmHg 72%
    02:00 +8°C° 0 mm 3 mps 748 mmHg 73%
    03:00 +8°C° 0 mm 3 mps 748 mmHg 74%
    04:00 +7°C° 0 mm 3 mps 748 mmHg 76%
    05:00 +7°C° 0 mm 3 mps 748 mmHg 77%
    06:00 +8°C° 0 mm 3 mps 748 mmHg 75%
    07:00 +8°C° 0 mm 4 mps 749 mmHg 72%
    08:00 +10°C° 0 mm 4 mps 749 mmHg 69%
    09:00 +12°C° 0 mm 4 mps 749 mmHg 66%
    10:00 +14°C° 0 mm 4 mps 750 mmHg 62%
    11:00 +17°C° 0 mm 4 mps 750 mmHg 58%
    12:00 +18°C° 0 mm 4 mps 749 mmHg 57%
    13:00 +18°C° 0 mm 4 mps 749 mmHg 56%
    14:00 +19°C° 0 mm 4 mps 748 mmHg 55%
    15:00 +18°C° 0 mm 3 mps 748 mmHg 60%
    16:00 +16°C° 0 mm 3 mps 748 mmHg 65%
    17:00 +14°C° 0 mm 3 mps 748 mmHg 70%
    18:00 +13°C° 0 mm 3 mps 748 mmHg 70%
    19:00 +12°C° 0 mm 3 mps 749 mmHg 70%
    20:00 +11°C° 0 mm 3 mps 749 mmHg 69%
    21:00 +10°C° 0 mm 3 mps 749 mmHg 72%
    22:00 +10°C° 0 mm 3 mps 749 mmHg 74%
    23:00 +9°C° 0 mm 2 mps 749 mmHg 76%
    Show more